Location: Claremont
(33.9858°S, 18.4575°E)
Time: 18:36:09
(UTC+00:00)

Envisat - Visible Passes

Search period start: 09 December 2022 00:00
Search period end: 19 December 2022 00:00
Orbit: 763 x 765 km, 98.2° (Epoch: 08 December)

Date Brightness Start Highest point End Pass type
(mag) Time Alt. Az. Time Alt. Az. Time Alt. Az.
09 Dec 5.7 01:02:53 10° ENE 01:06:10 18° ESE 01:09:29 10° SSE visible
09 Dec 3.3 02:39:51 10° N 02:44:44 47° W 02:49:42 10° SSW visible
10 Dec 3.3 02:02:41 10° NNE 02:07:45 72° ESE 02:12:53 10° S visible
11 Dec 4.8 01:26:33 10° NE 01:30:57 30° ESE 01:35:25 10° S visible
12 Dec 5.8 00:51:58 10° E 00:54:22 13° ESE 00:56:46 10° SE visible
12 Dec 3.0 02:27:43 10° N 02:32:45 62° W 02:37:52 10° SSW visible
13 Dec 3.7 01:50:52 10° NNE 01:55:50 55° ESE 02:00:51 10° S visible
14 Dec 5.3 01:15:06 10° ENE 01:19:06 24° ESE 01:23:07 10° SSE visible
14 Dec 3.7 02:53:16 10° NNW 02:57:51 34° W 03:02:30 10° SSW visible
15 Dec 3.0 02:15:42 10° N 02:20:47 83° WNW 02:25:58 10° SSW visible
16 Dec 4.3 01:39:10 10° NE 01:43:55 41° ESE 01:48:44 10° S visible
17 Dec 5.6 01:03:50 10° ENE 01:07:15 18° ESE 01:10:41 10° SSE visible
17 Dec 3.4 02:41:00 10° N 02:45:50 44° W 02:50:46 10° SSW visible
18 Dec 3.2 02:03:46 10° NNE 02:08:50 76° ESE 02:13:59 10° S visible
